IBE04CB LEMD-LEBB

Flight info

Callsign IBE04CB
Flight time 0h 45m
Altitude 28000
Route SIE6L/36L SIE N858 DGO
Aircraft A320/M-SDE3FGHIRWY/LB1

Departure

Time 2025-12-29 12:43
Airport Adolfo Suárez Madrid–Barajas Airport (LEMD)

Arrival

Time 2025-12-29 13:29
Airport Bilbao Airport (LEBB)
Time Latitude Longitude Altitude Speed Heading
2025-12-29 12:18 40.49398 -3.58970 2032 ft 0 kts 270°
2025-12-29 12:34 40.49404 -3.58892 2033 ft 3 kts 218°
2025-12-29 12:35 40.49419 -3.58883 2032 ft 2 kts 181°
2025-12-29 12:38 40.49265 -3.58881 2022 ft 8 kts 173°
2025-12-29 12:39 40.49240 -3.58816 2027 ft 10 kts 88°
2025-12-29 12:39 40.49242 -3.58580 2026 ft 16 kts 91°
2025-12-29 12:40 40.49243 -3.58176 2007 ft 27 kts 90°
2025-12-29 12:40 40.49246 -3.57652 1988 ft 9 kts 85°
2025-12-29 12:41 40.49262 -3.57574 1986 ft 9 kts 65°
2025-12-29 12:41 40.49376 -3.57455 1984 ft 17 kts 14°
2025-12-29 12:42 40.50229 -3.57459 1988 ft 122 kts 359°
2025-12-29 12:42 40.51254 -3.57468 1998 ft 170 kts 360°
2025-12-29 12:43 40.54969 -3.57532 3854 ft 181 kts 354°
2025-12-29 12:43 40.56931 -3.59868 4463 ft 216 kts 301°
2025-12-29 12:44 40.59059 -3.62821 5587 ft 227 kts 320°
2025-12-29 12:44 40.61570 -3.65403 6953 ft 234 kts 327°
2025-12-29 12:45 40.64370 -3.66038 7458 ft 268 kts 12°
2025-12-29 12:45 40.68112 -3.64954 8879 ft 280 kts 13°
2025-12-29 12:46 40.71976 -3.63831 10327 ft 293 kts 13°
2025-12-29 12:46 40.78471 -3.61962 11678 ft 333 kts 13°
2025-12-29 12:47 40.80748 -3.61313 12380 ft 337 kts 13°
2025-12-29 12:47 40.85502 -3.59948 13151 ft 363 kts 13°
2025-12-29 12:48 40.90501 -3.58515 14154 ft 375 kts 12°
2025-12-29 12:48 40.95628 -3.57045 15392 ft 380 kts 12°
2025-12-29 12:49 41.00854 -3.55543 16487 ft 388 kts 12°
2025-12-29 12:49 41.06135 -3.54034 17580 ft 394 kts 12°
2025-12-29 12:50 41.11581 -3.52464 18599 ft 402 kts 12°
2025-12-29 12:50 41.14326 -3.51669 19039 ft 405 kts 12°
2025-12-29 12:51 41.22692 -3.49241 20401 ft 415 kts 12°
2025-12-29 12:51 41.28370 -3.47594 21260 ft 421 kts 12°
2025-12-29 12:52 41.34139 -3.45921 22069 ft 428 kts 12°
2025-12-29 12:52 41.39997 -3.44213 22880 ft 434 kts 12°
2025-12-29 12:53 41.45928 -3.42479 23736 ft 437 kts 11°
2025-12-29 12:53 41.51821 -3.40423 24470 ft 441 kts 21°
2025-12-29 12:53 41.54676 -3.38862 24761 ft 444 kts 22°
2025-12-29 12:55 41.69089 -3.30867 26442 ft 453 kts 22°
2025-12-29 12:57 41.92602 -3.17788 28163 ft 457 kts 24°
2025-12-29 12:59 42.16132 -3.04601 26416 ft 456 kts 24°
2025-12-29 13:00 42.33430 -2.94826 24911 ft 445 kts 24°
2025-12-29 13:01 42.39129 -2.91603 24420 ft 443 kts 25°
2025-12-29 13:01 42.44705 -2.88189 23695 ft 435 kts 33°
2025-12-29 13:02 42.49379 -2.83193 22423 ft 423 kts 44°
2025-12-29 13:02 42.51564 -2.80550 21841 ft 419 kts 44°
2025-12-29 13:03 42.57998 -2.72826 20239 ft 405 kts 43°
2025-12-29 13:03 42.62166 -2.67796 19254 ft 397 kts 43°
2025-12-29 13:04 42.66285 -2.62809 18355 ft 398 kts 43°
2025-12-29 13:04 42.70402 -2.57818 17431 ft 394 kts 43°
2025-12-29 13:05 42.74451 -2.52905 16532 ft 389 kts 43°
2025-12-29 13:05 42.78467 -2.48005 15700 ft 395 kts 44°
2025-12-29 13:05 42.80467 -2.45563 15268 ft 388 kts 44°
2025-12-29 13:06 42.84444 -2.40715 14422 ft 375 kts 44°
2025-12-29 13:07 42.90186 -2.33700 13184 ft 366 kts 43°
2025-12-29 13:07 42.93944 -2.29092 12458 ft 357 kts 43°
2025-12-29 13:08 42.97538 -2.24674 11723 ft 343 kts 43°
2025-12-29 13:08 43.01016 -2.20396 11012 ft 330 kts 44°
2025-12-29 13:09 43.04267 -2.16136 10782 ft 320 kts 56°
2025-12-29 13:09 43.05457 -2.10451 10786 ft 315 kts 95°
2025-12-29 13:10 43.03672 -2.05003 10792 ft 333 kts 130°
2025-12-29 13:10 43.02117 -2.02626 10789 ft 337 kts 133°
2025-12-29 13:11 42.95830 -1.99101 10787 ft 345 kts 186°
2025-12-29 13:11 42.91615 -2.02056 10791 ft 356 kts 228°
2025-12-29 13:12 42.89947 -2.08682 10779 ft 393 kts 275°
2025-12-29 13:12 42.92386 -2.15235 10785 ft 399 kts 314°
2025-12-29 13:13 42.96243 -2.20698 10785 ft 399 kts 315°
2025-12-29 13:13 43.00358 -2.25748 10777 ft 398 kts 331°
2025-12-29 13:13 43.02928 -2.27116 10782 ft 397 kts 349°
2025-12-29 13:14 43.08186 -2.26580 10781 ft 363 kts 23°
2025-12-29 13:15 43.13120 -2.20313 10796 ft 302 kts 66°
2025-12-29 13:15 43.14010 -2.14982 10798 ft 283 kts 91°
2025-12-29 13:16 43.12956 -2.09898 10487 ft 282 kts 127°
2025-12-29 13:16 43.09638 -2.07314 10059 ft 282 kts 174°
2025-12-29 13:17 43.05978 -2.08964 9792 ft 288 kts 222°
2025-12-29 13:17 43.03825 -2.13548 9525 ft 290 kts 254°
2025-12-29 13:18 43.04157 -2.18952 9202 ft 291 kts 286°
2025-12-29 13:18 43.05873 -2.26828 8412 ft 287 kts 286°
2025-12-29 13:19 43.06439 -2.29432 8163 ft 285 kts 286°
2025-12-29 13:19 43.08235 -2.37049 7394 ft 280 kts 297°
2025-12-29 13:20 43.09328 -2.39280 7139 ft 279 kts 311°
2025-12-29 13:20 43.11904 -2.42974 6833 ft 256 kts 313°
2025-12-29 13:21 43.13743 -2.46750 6592 ft 227 kts 295°
2025-12-29 13:21 43.15111 -2.50471 6331 ft 212 kts 296°
2025-12-29 13:22 43.16526 -2.54278 6077 ft 219 kts 295°
2025-12-29 13:22 43.17203 -2.56097 5984 ft 209 kts 295°
2025-12-29 13:23 43.19133 -2.61302 5430 ft 213 kts 294°
2025-12-29 13:23 43.20467 -2.64900 4785 ft 211 kts 295°
2025-12-29 13:24 43.21751 -2.68367 4153 ft 196 kts 295°
2025-12-29 13:24 43.22970 -2.71667 3565 ft 193 kts 295°
2025-12-29 13:25 43.24172 -2.74921 2963 ft 190 kts 295°
2025-12-29 13:25 43.25360 -2.78142 2378 ft 186 kts 295°
2025-12-29 13:26 43.26303 -2.80701 1923 ft 170 kts 296°
2025-12-29 13:26 43.27293 -2.83390 1394 ft 150 kts 297°
2025-12-29 13:27 43.28219 -2.85909 947 ft 146 kts 298°
2025-12-29 13:27 43.29117 -2.88355 491 ft 142 kts 296°
2025-12-29 13:28 43.29987 -2.90724 135 ft 130 kts 295°
2025-12-29 13:28 43.30485 -2.91948 124 ft 31 kts 323°
2025-12-29 13:29 43.30631 -2.91997 125 ft 8 kts 82°
2025-12-29 13:29 43.30599 -2.91884 127 ft 6 kts 117°
2025-12-29 13:29 43.30574 -2.91817 126 ft 8 kts 116°
2025-12-29 13:30 43.30537 -2.91715 124 ft 3 kts 117°
2025-12-29 13:31 43.30500 -2.91614 127 ft 9 kts 116°
2025-12-29 13:31 43.30424 -2.91408 126 ft 15 kts 116°
2025-12-29 13:32 43.30323 -2.91133 125 ft 8 kts 117°
2025-12-29 13:32 43.30318 -2.91033 127 ft 0 kts 50°
2025-12-29 13:33 43.30376 -2.90989 125 ft 8 kts 28°
2025-12-29 13:34 43.30407 -2.90799 127 ft 11 kts 98°
2025-12-29 13:34 43.30386 -2.90655 124 ft 4 kts 14°
2025-12-29 13:35 43.30416 -2.90640 124 ft 2 kts 27°
2025-12-29 13:35 43.30427 -2.90633 124 ft 0 kts 26°